Brownwood, TX

1:12 PM CST on December 15, 2017 (GMT -0600)
Brownwood Regional

Weather History for KBWD - November, 2013

Change the Weather History Date:

Thursday, November 21, 2013

  Actual Average (KABI) Record (KABI)
Temperature  
Mean Temperature 60 °F -  
Max Temperature 80 °F 62 °F 83 °F (1897)
Min Temperature 39 °F 40 °F 20 °F (1906)
Degree Days  
Heating Degree Days 4    
Growing Degree Days 10 (Base 50)    
Moisture  
Dew Point 61 °F    
Average Humidity 84    
Maximum Humidity 100    
Minimum Humidity 54    
Precipitation  
Precipitation 0.00 in - - ()
Sea Level Pressure  
Sea Level Pressure 30.01 in    
Wind  
Wind Speed 9 mph (SSE)    
Max Wind Speed 26 mph    
Max Gust Speed 34 mph    
Visibility 10 miles    
Events Rain , Thunderstorm    
Averages and records for this station are not official NWS values.
T = Trace of Precipitation, MM = Missing Value Source: NWS Daily Summary

Daily Weather History Graph

Daily Weather History Graph

Search for Another Location

Airport or City:

Trip Planner

Search our weather history database for the weather conditions in past years. The results will help you decide how hot, cold, wet, or windy it might be!

Date:

Astronomy

Nov. 21, 2013 Rise Set
Actual Time 7:09 AM CST 5:33 PM CST
Civil Twilight 6:43 AM CST 5:59 PM CST
Nautical Twilight 6:13 AM CST 6:29 PM CST
Astronomical Twilight 5:44 AM CST 6:58 PM CST
Moon 9:09 PM CST (11/21) 10:18 AM CST (11/21)
Length of Visible Light 11h 16m
Length of Day
10h 23m
Waning Gibbous, 85% of the Moon is Illuminated
Nov 21
Waning Gibbous
Nov 25
Last Quarter
Dec 2
New
Dec 9
First Quarter
Dec 17
Full

Hourly Weather History & Observations

Time (CST) Temp. Windchill Dew Point Humidity Pressure Visibility Wind Dir Wind Speed Gust Speed Precip Events Conditions
12:15 AM 64.4 °F - 62.6 °F 94% 29.94 in 10.0 mi SSE 5.8 mph - N/A   Unknown
12:35 AM 64.4 °F - 62.6 °F 94% 29.94 in 10.0 mi SE 8.1 mph - N/A   Unknown
12:55 AM 64.4 °F - 62.6 °F 94% 29.94 in 10.0 mi SSE 8.1 mph - N/A   Unknown
1:15 AM 64.4 °F - 62.6 °F 94% 29.95 in 10.0 mi SSE 8.1 mph - N/A   Overcast
1:35 AM 64.4 °F - 62.6 °F 94% 29.95 in 10.0 mi SSE 5.8 mph - N/A   Unknown
1:55 AM 64.4 °F - 64.4 °F 100% 29.94 in 10.0 mi SE 5.8 mph - N/A   Unknown
2:15 AM 64.4 °F - 64.4 °F 100% 29.94 in 10.0 mi SSE 8.1 mph - N/A   Unknown
2:35 AM 64.4 °F - 64.4 °F 100% 29.94 in 10.0 mi SSE 6.9 mph - N/A   Unknown
2:55 AM 64.4 °F - 64.4 °F 100% 29.94 in 10.0 mi SSE 11.5 mph - N/A   Unknown
3:15 AM 64.4 °F - 64.4 °F 100% 29.94 in 10.0 mi SSE 9.2 mph - N/A   Unknown
3:35 AM 64.4 °F - 64.4 °F 100% 29.94 in 10.0 mi SSE 8.1 mph - N/A   Unknown
3:55 AM 64.4 °F - 64.4 °F 100% 29.94 in 10.0 mi SSE 8.1 mph - N/A   Unknown
4:15 AM 66.2 °F - 66.2 °F 100% 29.93 in 10.0 mi SSE 6.9 mph - N/A   Unknown
4:35 AM 66.2 °F - 66.2 °F 100% 29.93 in 10.0 mi SSE 5.8 mph - N/A   Unknown
4:55 AM 66.2 °F - 66.2 °F 100% 29.94 in 10.0 mi SSE 5.8 mph - N/A   Unknown
5:15 AM 66.2 °F - 66.2 °F 100% 29.94 in 10.0 mi SSE 6.9 mph - N/A   Unknown
5:35 AM 66.2 °F - 66.2 °F 100% 29.94 in 10.0 mi SSE 5.8 mph - N/A   Unknown
5:55 AM 66.2 °F - 66.2 °F 100% 29.94 in 10.0 mi SSE 5.8 mph - N/A   Overcast
6:15 AM 64.4 °F - 64.4 °F 100% 29.94 in 10.0 mi SE 6.9 mph - N/A   Unknown
6:35 AM 64.4 °F - 64.4 °F 100% 29.95 in 10.0 mi SSE 5.8 mph - N/A   Unknown
6:55 AM 66.2 °F - 66.2 °F 100% 29.96 in 10.0 mi SSE 6.9 mph - N/A   Unknown
7:15 AM 66.2 °F - 66.2 °F 100% 29.97 in 9.0 mi SSE 8.1 mph - N/A   Unknown
7:35 AM 66.2 °F - 66.2 °F 100% 29.97 in 8.0 mi SSE 8.1 mph - N/A   Mostly Cloudy
7:55 AM 66.2 °F - 66.2 °F 100% 29.98 in 7.0 mi SSE 6.9 mph - N/A   Partly Cloudy
8:15 AM 66.2 °F - 66.2 °F 100% 29.98 in 7.0 mi SSE 6.9 mph - N/A   Partly Cloudy
8:35 AM 66.2 °F - 66.2 °F 100% 29.99 in 7.0 mi SSE 8.1 mph - N/A   Partly Cloudy
8:55 AM 68.0 °F - 68.0 °F 100% 30.00 in 8.0 mi SSE 5.8 mph - N/A   Partly Cloudy
9:15 AM 68.0 °F - 68.0 °F 100% 30.01 in 8.0 mi SSE 5.8 mph - N/A   Scattered Clouds
9:35 AM 68.0 °F - 68.0 °F 100% 30.01 in 9.0 mi SSE 6.9 mph - N/A   Partly Cloudy
9:55 AM 69.8 °F - 68.0 °F 94% 30.02 in 10.0 mi SSE 8.1 mph - N/A   Unknown
10:15 AM 69.8 °F - 68.0 °F 94% 30.02 in 10.0 mi SSE 4.6 mph - N/A   Unknown
10:35 AM 71.6 °F - 68.0 °F 88% 30.02 in 10.0 mi SSE 6.9 mph - N/A   Unknown
10:55 AM 73.4 °F - 68.0 °F 83% 30.02 in 9.0 mi SSE 9.2 mph - N/A   Unknown
11:15 AM 71.6 °F - 66.2 °F 83% 30.01 in 10.0 mi South 9.2 mph - N/A   Unknown
11:35 AM 75.2 °F - 66.2 °F 73% 30.00 in 10.0 mi South 12.7 mph 17.3 mph N/A   Unknown
11:55 AM 75.2 °F - 66.2 °F 73% 29.99 in 10.0 mi South 10.4 mph - N/A   Unknown
12:15 PM 77.0 °F - 66.2 °F 69% 29.99 in 10.0 mi South 10.4 mph 17.3 mph N/A   Unknown
12:35 PM 77.0 °F - 66.2 °F 69% 29.98 in 9.0 mi SSW 10.4 mph - N/A   Unknown
12:55 PM 77.0 °F - 64.4 °F 65% 29.97 in 9.0 mi SSW 10.4 mph - N/A   Unknown
1:15 PM 77.0 °F - 64.4 °F 65% 29.97 in 10.0 mi South 9.2 mph - N/A   Unknown
1:35 PM 77.0 °F - 64.4 °F 65% 29.97 in 10.0 mi South 10.4 mph 16.1 mph N/A   Unknown
1:55 PM 78.8 °F - 64.4 °F 61% 29.95 in 10.0 mi South 9.2 mph - N/A   Unknown
2:15 PM 78.8 °F - 64.4 °F 61% 29.95 in 10.0 mi SSE 11.5 mph - N/A   Unknown
2:35 PM 78.8 °F - 64.4 °F 61% 29.94 in 10.0 mi South 12.7 mph - N/A   Unknown
2:55 PM 78.8 °F - 64.4 °F 61% 29.94 in 10.0 mi South 6.9 mph - N/A   Clear
3:15 PM 80.6 °F - 62.6 °F 54% 29.94 in 10.0 mi South 10.4 mph - N/A   Unknown
3:35 PM 80.6 °F - 64.4 °F 58% 29.95 in 10.0 mi SSE 10.4 mph - N/A   Unknown
3:55 PM 80.6 °F - 64.4 °F 58% 29.95 in 10.0 mi South 9.2 mph - N/A   Clear
4:15 PM 78.8 °F - 64.4 °F 61% 29.96 in 10.0 mi SE 8.1 mph - N/A   Clear
4:35 PM 77.0 °F - 64.4 °F 65% 29.96 in 10.0 mi ESE 6.9 mph - N/A   Clear
4:55 PM 77.0 °F - 64.4 °F 65% 29.96 in 10.0 mi SSE 8.1 mph - N/A   Clear
5:15 PM 77.0 °F - 64.4 °F 65% 29.97 in 10.0 mi SE 10.4 mph - N/A   Clear
5:35 PM 77.0 °F - 64.4 °F 65% 29.98 in 10.0 mi SSE 8.1 mph - N/A   Clear
5:55 PM 75.2 °F - 64.4 °F 69% 29.98 in 10.0 mi SSE 9.2 mph - N/A   Clear
6:15 PM 75.2 °F - 64.4 °F 69% 30.00 in 10.0 mi SE 8.1 mph - N/A   Clear
6:35 PM 73.4 °F - 64.4 °F 73% 30.00 in 10.0 mi SE 8.1 mph - N/A   Unknown
6:55 PM 73.4 °F - 64.4 °F 73% 30.01 in 10.0 mi SE 6.9 mph - N/A   Clear
7:15 PM 71.6 °F - 66.2 °F 83% 30.02 in 10.0 mi SE 5.8 mph - N/A   Clear
7:35 PM 69.8 °F - 64.4 °F 83% 30.03 in 10.0 mi ESE 4.6 mph - N/A   Mostly Cloudy
7:55 PM 64.4 °F - 55.4 °F 73% 30.06 in 9.0 mi North 26.5 mph 31.1 mph N/A   Unknown
8:15 PM 55.4 °F - 48.2 °F 77% 30.11 in 10.0 mi North 19.6 mph 34.5 mph N/A Thunderstorm Unknown
8:35 PM 50.0 °F - 44.6 °F 82% 30.14 in 10.0 mi North 21.9 mph 31.1 mph N/A Rain , Thunderstorm Light Rain
8:55 PM 48.2 °F - 42.8 °F 82% 30.16 in 10.0 mi North 25.3 mph 34.5 mph N/A Thunderstorm Unknown
9:15 PM 48.2 °F - 41.0 °F 76% 30.18 in 10.0 mi North 20.7 mph 26.5 mph N/A   Unknown
9:35 PM 46.4 °F 39.5 °F 41.0 °F 81% 30.19 in 10.0 mi North 17.3 mph 31.1 mph N/A   Overcast
9:55 PM 44.6 °F 36.1 °F 39.2 °F 81% 30.20 in 10.0 mi North 21.9 mph 31.1 mph N/A   Overcast
10:15 PM 44.6 °F 37.4 °F 39.2 °F 81% 30.22 in 10.0 mi North 16.1 mph 33.4 mph N/A   Unknown
10:35 PM 42.8 °F 34.0 °F 37.4 °F 81% 30.22 in 10.0 mi North 20.7 mph 28.8 mph N/A   Unknown
10:55 PM 42.8 °F 33.5 °F 37.4 °F 81% 30.22 in 10.0 mi North 23.0 mph 29.9 mph N/A   Unknown
11:15 PM 41.0 °F 32.8 °F 37.4 °F 87% 30.23 in 10.0 mi North 16.1 mph 25.3 mph N/A   Unknown
11:35 PM 41.0 °F 31.4 °F 35.6 °F 81% 30.24 in 10.0 mi North 21.9 mph 32.2 mph N/A   Unknown
11:55 PM 39.2 °F 29.6 °F 35.6 °F 87% 30.25 in 10.0 mi North 19.6 mph 31.1 mph N/A   Unknown